Theta_e
296 296 296 296 296 297 297 297 297 298 299 297 297 299 301 305 312 313 314 319 327 328 328 329 327 328 327 327 327 324 323 322 323 318 320 323 324 324 323 323 322 322 322
296 295 295 295 295 295 296 296 296 297 298 295 296 298 299 302 309 308 310 313 316 326 327 326 328 328 327 327 326 324 322 323 323 320 316 313 316 318 315 316 317 318 319
295 295 295 294 295 294 294 294 295 296 297 296 296 297 301 304 302 304 307 310 313 315 326 325 327 325 326 325 325 326 324 321 322 323 318 310 309 313 316 315 315 316 317
295 294 294 294 293 293 295 295 294 295 295 295 295 294 295 295 298 301 305 309 310 312 315 326 324 323 325 326 327 326 325 323 317 317 319 318 316 311 310 316 316 315 316
294 294 294 293 293 293 293 294 294 295 294 295 295 295 294 296 298 299 301 303 306 309 309 318 325 326 327 326 325 323 321 320 320 318 319 318 317 317 313 310 310 313 313
294 294 294 293 293 293 293 294 294 294 294 294 294 295 295 295 297 297 298 299 302 305 307 309 321 325 326 325 325 325 323 322 322 321 319 318 315 313 311 307 309 308 305
295 294 293 293 292 291 292 292 292 292 293 293 293 295 295 296 297 297 297 297 299 301 304 307 311 316 322 325 325 323 321 321 319 319 318 315 317 312 310 309 309 308 305
294 293 293 292 291 290 291 291 291 291 292 292 293 294 295 295 297 297 298 297 299 301 303 304 309 311 313 321 321 320 318 318 320 315 315 315 315 315 314 312 310 305 306
293 293 292 292 291 290 290 290 290 291 292 292 293 294 294 295 295 297 299 300 299 300 301 303 307 311 311 314 320 319 318 318 318 317 317 316 317 318 315 314 313 310 303
293 293 293 292 291 290 289 290 291 291 291 291 292 293 294 294 295 296 297 298 300 300 301 303 306 308 312 313 314 318 318 318 317 317 317 317 314 313 314 313 313 312 309
292 293 293 292 290 289 289 289 290 290 291 291 292 292 292 293 294 295 296 297 299 300 302 304 305 307 309 314 314 315 314 311 310 309 310 305 306 305 306 307 308 311 310
290 291 291 291 291 289 288 288 289 289 290 291 292 291 291 292 292 293 294 296 297 299 300 302 304 305 305 308 309 307 306 306 303 302 302 302 302 302 301 301 301 301 302
290 290 291 291 291 289 288 288 288 289 290 291 292 291 290 290 291 291 292 294 296 297 298 299 299 299 300 300 300 301 299 298 298 299 300 299 301 299 297 296 295 297 295
289 289 290 290 290 288 287 287 288 288 289 290 291 290 289 289 290 290 291 292 293 295 295 295 296 296 297 297 296 297 295 294 294 294 295 295 296 295 293 292 292 292 292
286 287 287 287 287 287 286 286 287 287 288 289 289 289 289 289 289 289 290 291 291 292 293 293 294 294 294 295 295 294 294 293 291 290 290 291 289 288 290 290 290 291 291
288 287 287 287 286 285 286 286 285 287 288 287 289 289 288 288 288 288 288 289 289 290 291 291 292 292 292 292 293 294 291 291 291 290 290 290 288 289 289 289 289 290 290
292 291 290 287 287 287 287 286 287 287 287 288 288 288 287 287 287 287 288 287 288 288 288 289 290 291 291 291 290 290 292 291 290 289 287 286 287 288 287 287 287 286 287
291 292 292 289 288 288 286 287 287 287 287 288 288 288 288 287 286 286 287 287 287 287 287 288 289 290 289 289 289 289 291 290 289 289 289 288 287 287 287 286 285 285 286
292 293 294 291 289 287 287 287 286 286 286 286 287 286 286 286 287 287 287 286 287 287 286 286 287 288 288 288 288 289 288 287 287 287 288 288 287 285 286 285 284 284 284
291 292 292 289 288 287 287 286 285 285 285 286 286 286 285 285 286 285 285 285 285 284 285 284 286 285 287 287 287 288 287 286 285 286 285 285 287 286 286 285 283 282 282
291 291 289 288 288 286 285 285 285 284 285 284 284 284 284 283 284 284 284 284 285 284 284 284 284 285 286 287 287 286 287 286 286 285 285 286 286 286 285 285 284 283 283
290 290 289 288 287 284 284 284 284 285 283 283 282 282 282 283 283 282 282 282 283 283 282 283 284 284 284 285 287 286 286 286 286 285 286 286 286 285 285 284 284 284 283
290 289 288 285 284 282 283 283 284 282 280 280 280 280 280 281 282 282 282 282 282 283 281 282 284 284 284 285 286 286 286 284 284 285 286 286 286 285 285 285 284 282 283
287 285 284 284 284 282 281 283 282 281 279 280 280 280 279 280 280 282 282 283 283 283 282 281 282 283 284 284 284 286 286 283 284 285 285 285 285 284 285 283 282 282 283
285 285 286 286 286 285 283 283 281 280 281 281 281 281 282 280 281 280 282 282 283 284 284 284 283 282 283 283 284 285 285 285 284 284 283 281 281 281 281 282 281 281 281
285 284 285 285 286 285 285 283 281 280 281 282 282 283 282 282 282 282 282 282 283 282 283 283 282 283 282 282 283 284 284 284 284 281 280 278 278 278 279 279 279 280 279
Wind_Speed
2 3 4 5 7 8 10 11 11 12 8 8 7 4 4 7 6 6 7 6 4 8 8 8 8 8 10 10 11 7 9 6 4 3 4 7 8 8 7 6 6 7 5
5 3 5 6 7 9 10 11 10 11 8 6 4 3 4 4 4 5 6 7 6 4 7 7 9 11 8 10 10 9 5 5 5 2 1 2 4 2 0 2 3 4 2
7 6 6 6 7 8 10 9 9 9 9 8 5 4 3 3 4 5 6 6 7 6 7 9 9 9 7 8 10 11 11 7 6 7 2 3 4 2 2 1 1 2 2
5 5 6 7 7 8 8 9 8 8 8 9 6 6 3 4 3 4 6 5 7 7 9 9 9 7 5 8 8 8 7 5 5 2 5 4 4 3 3 3 3 3 4
5 6 5 6 6 6 8 8 7 7 7 8 7 5 4 3 3 4 6 6 7 8 9 7 11 10 8 8 8 7 6 4 4 3 4 7 5 5 6 6 1 2 4
4 5 5 5 6 6 7 7 8 8 7 6 7 6 5 5 4 4 4 4 4 5 8 9 3 8 8 8 7 7 8 7 6 6 5 6 3 5 5 4 3 2 3
6 5 6 7 7 8 8 6 7 7 8 8 7 7 6 5 5 5 3 4 4 3 6 7 5 3 3 7 6 7 6 7 7 8 7 3 6 3 2 2 3 4 3
4 5 5 6 7 8 9 9 8 8 9 8 7 6 7 4 3 4 5 2 2 3 5 6 6 4 3 4 6 4 4 5 9 7 6 5 5 4 6 5 5 2 2
3 2 2 3 5 6 8 8 8 7 7 6 6 5 5 6 5 5 5 4 3 4 5 5 6 5 2 3 4 5 5 6 6 6 7 7 4 5 5 5 4 3 4
2 0 1 1 1 4 5 7 7 7 7 7 7 5 5 5 5 4 4 5 5 4 5 5 5 3 3 1 2 4 3 4 2 2 4 4 0 3 3 4 4 4 3
5 4 2 4 2 2 4 4 6 7 7 6 6 6 6 6 5 5 5 4 4 5 4 5 4 3 2 2 3 2 2 4 3 2 3 5 3 3 4 3 2 0 1
5 4 4 4 3 1 3 4 4 5 6 7 7 8 8 7 6 5 6 5 4 4 4 5 4 2 1 1 5 5 5 5 5 5 6 5 2 5 4 3 3 3 3
3 2 4 5 4 2 2 4 4 5 6 7 6 6 7 6 6 6 6 6 4 3 3 2 3 4 4 5 6 7 6 7 6 5 5 4 5 5 3 4 2 3 3
3 3 2 4 4 4 3 1 4 5 6 6 7 6 6 7 7 7 6 6 6 4 3 5 5 4 4 6 7 7 8 8 7 7 6 5 4 5 5 4 4 5 6
4 4 3 4 4 4 4 3 1 2 5 5 5 6 6 6 6 7 7 6 6 5 5 5 6 6 5 4 7 6 8 8 8 8 7 7 8 10 7 3 4 5 6
5 4 4 5 5 5 5 5 3 2 2 3 4 5 4 4 4 5 6 6 5 5 5 6 6 6 5 7 8 8 6 7 7 10 8 9 9 14 16 17 16 8 5
5 5 6 6 5 7 7 7 6 4 2 1 1 3 4 4 5 4 4 5 5 5 6 6 7 8 6 8 10 8 7 7 7 7 6 7 5 7 10 16 19 18 18
7 7 5 7 7 7 5 6 7 7 5 2 1 3 2 1 2 2 4 5 3 4 4 6 6 6 6 8 10 7 9 7 7 6 6 7 7 7 7 8 12 13 11
7 8 6 7 8 9 8 7 6 7 7 7 5 3 1 2 1 2 3 3 4 5 6 4 5 5 6 6 6 6 7 7 6 5 5 6 7 8 9 8 9 12 11
5 7 7 6 8 9 10 8 7 7 7 7 6 5 3 1 1 2 2 2 2 3 3 4 5 4 4 5 5 5 4 5 3 4 5 5 8 9 8 7 7 9 8
7 6 8 8 8 9 8 7 7 8 6 5 6 6 5 5 3 2 1 2 1 4 4 4 3 2 2 4 5 5 3 4 4 3 4 3 7 7 7 6 4 5 9
8 8 8 7 7 8 8 7 9 4 5 5 5 4 5 4 4 4 2 1 1 0 1 3 3 1 0 1 4 4 3 5 3 3 3 4 7 8 8 3 10 13 9
6 5 7 7 6 7 8 9 7 7 7 6 5 4 3 4 4 5 4 2 3 3 3 3 2 3 2 1 1 5 8 6 4 4 6 9 8 7 5 10 10 7 3
6 4 6 7 9 9 10 11 5 6 8 8 8 7 7 6 5 4 4 5 6 4 3 3 4 3 3 3 3 3 5 6 6 8 6 6 5 5 5 6 6 3 3
4 5 9 9 10 9 11 8 7 7 7 7 7 8 7 8 7 7 7 7 6 6 5 5 4 4 4 4 5 5 5 5 5 6 4 3 5 5 5 6 6 5 4
5 5 9 7 7 7 9 9 9 9 8 8 7 7 7 7 6 6 6 13 11 12 11 7 6 5 7 2 7 9 7 8 14 5 6 6 6 7 7 7 7 6 7
Wind_Direction
314 300 330 339 345 354 352 355 351 351 355 344 352 355 348 334 0 24 29 23 220 203 199 191 179 181 179 186 183 177 188 192 178 154 225 239 245 251 256 262 258 249 250
303 315 339 340 357 347 351 351 354 347 353 358 334 311 306 299 327 9 27 29 13 231 196 197 193 195 189 189 174 173 179 204 190 204 36 287 236 224 275 280 284 279 280
306 324 338 344 345 350 345 346 347 342 345 354 333 328 312 301 352 3 5 11 8 356 211 199 196 193 189 190 187 195 190 188 189 213 227 200 235 322 148 105 88 90 104
293 304 322 340 348 344 338 342 347 346 348 350 350 12 359 342 360 344 327 4 8 8 346 206 194 192 193 208 191 194 198 171 172 188 227 259 300 274 258 140 85 67 73
310 307 321 334 338 337 338 340 349 350 355 346 354 1 356 329 343 335 329 13 4 15 360 320 201 195 201 196 185 180 178 194 174 199 179 216 233 247 253 269 162 104 63
321 298 315 323 334 340 348 345 352 357 353 358 353 351 348 353 1 4 344 6 347 12 359 350 248 190 199 192 193 190 193 206 224 217 214 214 198 213 213 228 226 206 85
321 313 315 331 337 342 347 354 355 355 354 353 350 347 350 357 359 349 345 345 358 10 352 352 336 69 209 196 186 197 206 216 217 212 219 212 225 149 182 200 224 194 149
339 310 320 325 338 339 340 344 355 353 353 348 347 341 352 348 343 343 320 324 355 337 349 326 320 48 11 201 188 181 201 212 206 204 208 213 215 201 218 222 217 222 147
18 329 321 322 330 338 337 337 343 345 354 356 337 341 352 347 350 339 317 330 340 336 330 318 337 28 289 294 177 195 192 208 208 215 214 216 211 219 222 218 210 202 169
303 162 169 135 332 330 333 329 339 342 349 350 342 344 357 353 342 328 321 336 333 334 316 316 322 342 290 245 274 166 188 197 184 216 208 211 156 249 212 205 209 201 160
301 279 184 154 152 292 324 336 338 341 346 356 351 350 354 351 342 331 330 336 318 327 317 308 302 291 328 246 219 142 119 111 113 64 92 71 55 55 10 358 52 43 18
296 280 202 166 159 273 315 337 348 338 347 344 353 5 1 353 346 338 331 338 336 335 316 311 304 326 10 72 118 103 85 121 105 91 90 95 104 82 66 53 47 85 50
286 263 197 186 173 176 314 340 349 351 350 352 2 16 4 351 345 346 338 351 347 352 336 31 46 32 33 73 69 97 96 87 70 69 92 109 105 95 93 82 81 67 52
263 264 224 195 184 169 172 310 347 357 354 355 3 16 9 357 353 347 355 0 357 9 35 53 58 70 79 80 83 91 92 86 83 70 63 58 72 110 108 98 101 104 97
231 221 200 183 205 189 168 173 183 28 352 352 6 12 14 10 351 2 0 12 18 16 31 54 55 53 56 75 102 98 112 109 100 83 67 61 74 73 73 105 100 105 111
242 210 204 193 196 204 174 164 176 113 54 360 358 16 18 14 14 18 11 21 19 26 46 42 54 62 58 76 101 117 102 105 110 104 105 91 88 83 82 76 63 52 125
224 209 186 192 186 187 177 168 151 135 105 15 53 5 9 23 31 23 39 34 21 24 31 47 50 58 62 71 76 88 103 103 107 113 118 101 84 85 89 86 80 64 59
229 226 188 168 174 166 165 153 153 146 134 116 355 339 339 32 8 23 58 50 31 39 40 47 55 68 57 73 86 83 98 98 100 115 123 116 117 108 105 99 95 83 64
226 215 187 169 157 167 170 164 168 158 156 163 169 166 232 325 345 82 85 68 76 59 56 46 60 62 70 65 72 81 88 93 100 103 110 110 113 120 117 111 101 94 91
187 189 168 156 162 172 172 174 175 182 188 173 168 156 146 121 26 8 17 48 81 93 91 78 62 58 88 92 100 95 106 119 121 109 105 113 133 137 123 130 135 121 124
162 165 170 181 183 166 171 190 183 207 189 167 162 161 158 151 146 121 18 315 158 134 122 120 97 87 93 125 125 129 141 157 162 150 128 117 140 142 135 137 145 136 137
165 178 177 187 179 170 177 194 207 191 164 172 178 173 163 165 160 152 147 143 177 165 128 156 151 158 357 158 151 148 135 150 147 142 124 132 136 123 124 137 137 137 130
191 176 187 171 190 180 196 200 213 173 162 167 176 189 192 184 175 176 179 198 190 190 224 226 236 197 174 174 194 150 146 135 124 134 139 145 144 139 130 142 151 148 151
210 183 182 199 206 201 203 218 171 173 168 181 182 180 185 195 212 202 204 198 190 206 205 229 261 250 242 216 188 175 156 140 137 145 143 154 151 161 164 165 173 209 196
201 196 215 209 216 189 210 213 189 165 191 195 190 193 199 196 188 211 202 208 225 216 191 192 200 224 242 249 229 190 174 171 163 151 130 142 171 187 193 200 208 214 206
186 210 236 245 224 206 211 188 180 181 191 206 205 209 200 196 202 209 221 226 235 212 221 225 210 186 208 286 236 218 206 182 169 168 191 199 201 206 206 210 212 216 216